Simultaneous Nadir Overpasses (SNOs) Predictions

Prediction of SNOs between GOES-15 and TERRA Satellite Orbit:

Table of predicted SNOs for the next 14.0 days since TLE Epoch: 1/14/2017
Index Date Time (GOES-15) GOES-15 Lat,Lon TERRA Lat,Lon Distance(km) Time Diff (sec)
1 01/14/2017 07:36:51 -0.01,-134.91 -0.31,-136.26 154.20 80
2 01/16/2017 07:21:59 -0.01,-134.98 0.36,-133.31 190.85 80
3 01/16/2017 19:45:54 0.02,-134.96 0.75,-138.46 397.23 80
4 01/18/2017 19:33:41 0.02,-135.04 0.14,-135.49 52.56 80
5 01/20/2017 19:18:49 0.01,-135.11 -0.55,-132.55 291.74 80
6 01/21/2017 07:42:52 -0.02,-135.16 -0.59,-137.73 292.08 80
7 01/23/2017 07:28:00 -0.02,-135.23 0.11,-134.78 51.47 80
8 01/25/2017 07:15:46 -0.01,-135.28 0.69,-131.81 394.28 80
9 01/25/2017 19:39:42 0.02,-135.25 0.35,-136.97 194.74 80
10 01/27/2017 19:24:48 0.02,-135.30 -0.24,-134.00 147.54 80




NCC Satellite Simultaneous Nadir Overpasses (SNOs) Prediction Service
